www.pogodaiklimat.ru

Погода и климат >> Архив погоды >> Гренландия >> Nuussuaataa


ПОГОДА в Nuussuaataa

  • Прогноз погоды в Nuussuaataa
  • Монитор погоды в Nuussuaataa

АРХИВ ПОГОДЫ в Nuussuaataa

Время (UTC), дата Ветер
(напр.,м/с)
 
Видим.   Явления Облачность Т
(С)
Тd
(С)
f
(%)
Тe
(С)
Тes
(С)
Комфортность P
(гПа)
Po
(гПа)
Тmin
(С)
Tmax
(С)
R
(мм)
R24
(мм)
S
(см)
07 9.09 В 1 н/о н/о +4.0 0.0 75 +3 +3 1011.2 1007.9
08 9.09 С 1 н/о н/о +3.5 +0.2 79 +2 +2 1010.6 1007.3
09 9.09 С 3 н/о н/о +3.5 0.0 78 0 0 1009.9 1006.6
10 9.09 СВ 2 н/о н/о +3.9 +0.2 77 +1 +1 1009.3 1006.0
11 9.09 ЮВ 2 н/о н/о +4.2 +0.5 77 +2 +2 1008.5 1005.2
12 9.09 С 1 н/о н/о +4.1 +1.3 82 +4 +4 1007.8 1004.5
13 9.09 С 2 н/о н/о +4.2 +1.5 83 +2 +2 1007.1 1003.8
14 9.09 СЗ 1 н/о н/о +4.6 +0.3 74 +3 +3 1006.4 1003.1
15 9.09 З 2 н/о н/о +4.8 +1.1 77 +3 +3 1005.5 1002.2
16 9.09 СЗ 2 н/о н/о +4.6 +1.6 81 +3 +3 1004.8 1001.5
17 9.09 З 2 н/о н/о +6.2 +0.5 67 +5 +5 1003.8 1000.5
18 9.09 СЗ 5 н/о н/о +6.9 -1.8 54 +4 +4 1003.0 999.7
19 9.09 С 10 н/о н/о +5.3 -0.1 68 -1 -1 1002.4 999.1
20 9.09 С 8 н/о н/о +5.1 -0.1 69 -0 -0 1002.4 999.1
21 9.09 С 8 н/о н/о +5.2 -2.4 58 -0 -0 1002.0 998.7
22 9.09 С 7 н/о н/о +4.7 +0.1 72 -1 -1 1001.9 998.6
23 9.09 н/о н/о +4.4 -1.2 67 1001.9 998.6
00 10.09 СВ 5 н/о н/о +3.0 -2.3 68 -2 -2 1001.8 998.5
01 10.09 С 3 н/о н/о +3.8 -0.4 74 +1 +1 1001.6 998.3
02 10.09 С 3 н/о н/о +3.5 -1.3 71 0 0 1001.6 998.3
03 10.09 С 3 н/о н/о +3.2 +2.7 97 -1 -1 1001.6 998.3
04 10.09 С 2 н/о н/о +3.5 +3.5 100 +1 +1 1001.7 998.4
05 10.09 С 3 н/о н/о +3.6 +3.6 100 -0 -0 1001.8 998.5
06 10.09 В 3 н/о н/о +3.2 +0.4 82 -1 -1 1002.3 999.0
07 10.09 ЮВ 4 н/о н/о +3.4 +2.1 91 -1 -1 1002.4 999.1
08 10.09 ЮВ 5 н/о н/о +3.6 +3.3 98 -2 -2 1002.7 999.4
09 10.09 ЮВ 6 н/о н/о +3.7 +2.0 89 -2 -2 1002.8 999.5
10 10.09 Ю 7 н/о н/о +3.5 +0.7 82 -3 -3 1003.0 999.7
11 10.09 ЮВ 6 н/о н/о +3.7 -0.3 75 -2 -2 1003.3 1000.0
12 10.09 ЮВ 9 н/о н/о +3.3 -1.3 72 -3 -3 1003.4 1000.1
13 10.09 Ю 8 н/о н/о +3.6 -0.1 77 -3 -3 1003.6 1000.3
14 10.09 ЮВ 5 н/о н/о +3.7 +1.1 83 -1 -1 1004.2 1000.9
15 10.09 ЮВ 5 н/о н/о +3.7 +1.7 87 -1 -1 1004.4 1001.1
16 10.09 ЮВ 7 н/о н/о +3.6 +0.8 82 -2 -2 1004.1 1000.8
17 10.09 ЮВ 7 н/о н/о +3.5 +0.7 82 -2 -2 1004.1 1000.8
18 10.09 ЮВ 6 н/о н/о +3.6 +0.3 79 -2 -2 1004.3 1001.0
19 10.09 ЮВ 6 н/о н/о +3.7 +0.2 78 -2 -2 1004.8 1001.5
20 10.09 ЮВ 7 н/о н/о +3.6 +0.3 79 -2 -2 1004.8 1001.5
21 10.09 ЮВ 6 н/о н/о +3.8 -0.2 75 -2 -2 1005.2 1001.9
22 10.09 ЮВ 9 н/о н/о +3.5 +0.7 82 -3 -3 1005.1 1001.8
23 10.09 ЮВ 7 н/о н/о +3.2 +0.4 82 -3 -3 1005.2 1001.9
00 11.09 ЮВ 5 н/о н/о +3.0 +1.5 90 -2 -2 1005.6 1002.3
01 11.09 ЮВ 4 н/о н/о +3.1 +2.4 95 -2 -2 1005.7 1002.4
02 11.09 Ю 3 н/о н/о +2.8 +1.9 94 -1 -1 1005.6 1002.3
03 11.09 ЮВ 2 н/о н/о +3.0 +1.8 92 -0 -0 1005.6 1002.3
04 11.09 В 2 н/о н/о +2.6 +2.3 98 -1 -1 1005.5 1002.2
05 11.09 ЮВ 1 н/о н/о +2.9 +1.7 92 +1 +1 1005.5 1002.2
06 11.09 В 2 н/о н/о +2.5 +1.6 94 -1 -1 1005.6 1002.3
07 11.09 В 3 н/о н/о +2.5 +1.3 92 -1 -1 1005.8 1002.5
08 11.09 В 2 н/о н/о +2.7 +1.1 89 0 0 1005.9 1002.6
09 11.09 В 2 н/о н/о +2.4 +0.3 86 -1 -1 1006.0 1002.7
10 11.09 ЮВ 1 н/о н/о +2.3 -1.0 79 +2 +2 1006.0 1002.7
11 11.09 ЮВ 2 н/о н/о +3.0 -0.5 78 +1 +1 1006.2 1002.9
12 11.09 ЮВ 1 н/о н/о +3.5 -0.9 73 +2 +2 1006.2 1002.9
13 11.09 Ю 2 н/о н/о +3.6 -0.2 76 +1 +1 1006.2 1002.9
14 11.09 Ю 4 н/о н/о +4.0 -0.2 74 0 0 1006.1 1002.8
15 11.09 ЮВ 5 н/о н/о +3.6 +0.1 78 -1 -1 1005.9 1002.6
16 11.09 ЮВ 6 н/о н/о +3.4 -0.4 76 -2 -2 1005.9 1002.6
17 11.09 Ю 3 н/о н/о +3.9 -0.3 74 0 0 1006.0 1002.7
18 11.09 ЮЗ 2 н/о н/о +4.1 -1.3 68 +2 +2 1006.0 1002.7
19 11.09 З 1 н/о н/о +4.2 -1.0 69 +3 +3 1006.0 1002.7
20 11.09 СЗ 2 н/о н/о +3.8 -1.0 71 +1 +1 1006.1 1002.8
21 11.09 З 2 н/о н/о +3.6 -1.0 72 +2 +2 1006.0 1002.7
22 11.09 Ю 2 н/о н/о +3.2 -0.5 77 +1 +1 1005.9 1002.6
23 11.09 ЮВ 1 н/о н/о +2.6 -0.2 82 +1 +1 1006.1 1002.8
00 12.09 В 2 н/о н/о +2.4 -0.9 79 -1 -1 1006.1 1002.8
01 12.09 В 2 н/о н/о +2.5 -0.8 79 -1 -1 1006.1 1002.8
02 12.09 В 1 н/о н/о +2.4 -1.4 76 +1 +1 1006.2 1002.9
03 12.09 В 2 н/о н/о +2.1 -2.2 73 -0 -0 1006.2 1002.9
04 12.09 В 1 н/о н/о +2.2 -1.4 77 +1 +1 1006.2 1002.9
05 12.09 С 2 н/о н/о +1.8 -2.3 74 -1 -1 1006.2 1002.9
06 12.09 С 2 н/о н/о +2.0 -2.9 70 -0 -0 1006.2 1002.9
07 12.09 С 2 н/о н/о +1.6 -2.9 72 -1 -1 1006.4 1003.1
08 12.09 В 3 н/о н/о +1.5 -3.0 72 -2 -2 1006.5 1003.2
09 12.09 В 3 н/о н/о +1.9 -3.2 69 -2 -2 1006.5 1003.2
10 12.09 В 3 н/о н/о +2.2 -4.1 63 -2 -2 1006.6 1003.3
11 12.09 ЮВ 1 н/о н/о +2.3 -3.2 67 +1 +1 1006.8 1003.5
12 12.09 СВ 2 н/о н/о +2.6 -3.5 64 +1 +1 1007.0 1003.7
13 12.09 З 1 н/о н/о +2.8 -3.8 62 +2 +2 1007.2 1003.9
14 12.09 Ю 2 н/о н/о +2.9 -4.1 60 +1 +1 1007.2 1003.9
15 12.09 ЮВ 3 н/о н/о +2.7 -2.2 70 -1 -1 1007.2 1003.9
16 12.09 ЮВ 3 н/о н/о +3.3 -1.7 70 -0 -0 1007.1 1003.8
17 12.09 ЮВ 5 н/о н/о +3.1 -1.3 73 -2 -2 1006.9 1003.6
18 12.09 ЮВ 6 н/о н/о +3.2 -1.0 74 -2 -2 1007.0 1003.7
19 12.09 ЮВ 7 н/о н/о +3.1 -0.7 76 -3 -3 1007.1 1003.8
20 12.09 ЮВ 6 н/о н/о +3.0 -0.3 79 -3 -3 1007.5 1004.2
21 12.09 ЮВ 6 н/о н/о +3.1 -0.7 76 -3 -3 1007.5 1004.2
22 12.09 ЮВ 7 н/о н/о +3.0 -0.5 78 -3 -3 1007.5 1004.2
23 12.09 ЮВ 7 н/о н/о +3.0 -0.3 79 -3 -3 1007.7 1004.4
00 13.09 ЮВ 6 н/о н/о +2.9 -1.3 74 -3 -3 1007.8 1004.5
01 13.09 ЮВ 9 н/о н/о +1.5 +1.4 99 -6 -6 1007.6 1004.3
02 13.09 ЮВ 5 н/о н/о +1.7 +1.7 100 -4 -4 1007.7 1004.4
03 13.09 ЮВ 6 н/о н/о +2.6 -1.4 75 -3 -3 1007.5 1004.2
04 13.09 ЮВ 7 н/о н/о +1.7 +0.2 90 -5 -5 1007.4 1004.1
05 13.09 ЮВ 4 н/о н/о +2.1 -0.8 81 -3 -3 1007.5 1004.2
06 13.09 ЮВ 4 н/о н/о +2.1 -1.2 79 -2 -2 1007.6 1004.3
07 13.09 В 1 н/о н/о +2.2 -1.1 79 +1 +1 1007.4 1004.1
08 13.09 Ю 2 н/о н/о +1.9 -0.2 86 -1 -1 1007.3 1004.0
09 13.09 штиль 0 н/о н/о +1.9 -0.5 84 +1 +1 1007.2 1003.9
10 13.09 В 1 н/о н/о +2.0 -0.9 81 +2 +2 1007.2 1003.9
11 13.09 штиль 0 н/о н/о +2.0 -0.8 82 +1 +1 1007.1 1003.8
12 13.09 З 1 н/о н/о +2.9 -0.7 77 +3 +3 1007.1 1003.8
13 13.09 СЗ 3 н/о н/о +2.7 +0.1 83 -1 -1 1006.8 1003.5
14 13.09 СЗ 3 н/о н/о +3.0 -1.0 75 -0 -0 1006.4 1003.1
15 13.09 СЗ 3 н/о н/о +3.1 -0.6 77 -1 -1 1006.3 1003.0
16 13.09 СЗ 3 н/о н/о +3.3 -0.2 78 -0 -0 1005.9 1002.6
17 13.09 С 5 н/о н/о +3.2 -1.0 74 -2 -2 1005.5 1002.2
18 13.09 С 6 н/о н/о +2.9 -1.7 72 -3 -3 1005.3 1002.0
19 13.09 С 6 н/о н/о +3.1 -1.8 70 -2 -2 1005.2 1001.9
20 13.09 С 7 н/о н/о +2.3 -1.9 74 -4 -4 1005.1 1001.8
21 13.09 С 7 н/о н/о +2.2 -4.1 63 -4 -4 1004.9 1001.6
22 13.09 С 5 н/о н/о +1.7 -4.8 62 -3 -3 1004.9 1001.6
23 13.09 С 6 н/о н/о +1.5 -5.4 60 -4 -4 1004.6 1001.3
00 14.09 С 5 н/о н/о +1.7 -4.6 63 -3 -3 1004.6 1001.3
01 14.09 С 5 н/о н/о +1.9 -3.8 66 -3 -3 1004.3 1001.0
02 14.09 С 2 н/о н/о +0.8 -0.7 90 -3 -3 1004.2 1000.9
03 14.09 ЮВ 1 н/о н/о +0.7 +0.7 100 -2 -2 1003.9 1000.6
04 14.09 ЮВ 3 н/о н/о +0.2 +0.2 100 -4 -4 1003.4 1000.1
05 14.09 ЮВ 4 н/о н/о 0.0 0.0 100 -6 -6 1002.8 999.5
06 14.09 ЮВ 4 н/о н/о +0.2 +0.2 100 -6 -6 1002.5 999.2
07 14.09 ЮВ 4 н/о н/о +0.3 +0.3 100 -5 -5 1002.4 999.1
08 14.09 В 3 н/о н/о +0.5 +0.5 100 -4 -4 1002.1 998.8
09 14.09 н/о н/о +0.6 +0.6 100 1002.0 998.7
10 14.09 С 3 н/о н/о +0.6 +0.6 100 -4 -4 1002.0 998.7
11 14.09 С 3 н/о н/о +0.4 0.0 97 -4 -4 1001.9 998.6
12 14.09 СЗ 2 н/о н/о +1.0 +0.1 94 -3 -3 1001.8 998.5
13 14.09 С 3 н/о н/о +1.3 -1.9 79 -3 -3 1001.9 998.6
14 14.09 С 4 н/о н/о +1.5 -1.4 81 -4 -4 1002.0 998.7
15 14.09 С 4 н/о н/о +1.7 -2.4 74 -3 -3 1002.0 998.7
16 14.09 С 3 н/о н/о +2.0 -2.3 73 -2 -2 1002.0 998.7
17 14.09 СЗ 4 н/о н/о +2.1 -1.3 78 -2 -2 1002.2 998.9
18 14.09 СЗ 3 н/о н/о +2.0 -1.8 76 -2 -2 1002.4 999.1
19 14.09 СЗ 2 н/о н/о +2.0 -1.4 78 -1 -1 1002.8 999.5
20 14.09 Ю 2 н/о н/о +1.9 -1.7 77 -1 -1 1003.1 999.8
21 14.09 ЮВ 3 н/о н/о +2.0 -1.4 78 -2 -2 1003.2 999.9
22 14.09 ЮВ 5 н/о н/о +1.0 +1.0 100 -5 -5 1003.4 1000.1
23 14.09 ЮВ 4 н/о н/о +1.2 +1.2 100 -4 -4 1004.0 1000.7
00 15.09 ЮВ 6 н/о н/о +1.4 +1.3 99 -5 -5 1004.2 1000.9
01 15.09 ЮВ 6 н/о н/о +1.2 +1.2 100 -5 -5 1004.6 1001.3
02 15.09 ЮВ 6 н/о н/о +1.1 +1.1 100 -6 -6 1004.8 1001.5
03 15.09 ЮВ 6 н/о н/о +0.8 +0.8 100 -6 -6 1005.1 1001.8
04 15.09 ЮВ 6 н/о н/о +0.8 +0.8 100 -6 -6 1005.7 1002.4
05 15.09 ЮВ 5 н/о н/о +0.8 +0.8 100 -5 -5 1006.1 1002.8
06 15.09 ЮВ 6 н/о н/о +0.8 +0.8 100 -6 -6 1006.4 1003.1
07 15.09 ЮВ 6 н/о н/о +0.8 +0.8 100 -6 -6 1007.0 1003.7
08 15.09 ЮВ 6 н/о н/о +1.0 +1.0 100 -5 -5 1007.5 1004.2
09 15.09 ЮВ 6 н/о н/о +1.2 +1.2 100 -5 -5 1008.0 1004.7
10 15.09 ЮВ 7 н/о н/о +1.2 +1.2 100 -6 -6 1008.3 1005.0
11 15.09 ЮВ 7 н/о н/о +1.2 +1.2 100 -6 -6 1008.9 1005.6
12 15.09 ЮВ 6 н/о н/о +1.3 +1.3 100 -5 -5 1009.5 1006.2
13 15.09 ЮВ 7 н/о н/о +1.1 +1.1 100 -6 -6 1009.8 1006.5
14 15.09 ЮВ 7 н/о н/о +1.6 +1.4 99 -5 -5 1010.2 1006.9
15 15.09 ЮВ 7 н/о н/о +1.3 +1.3 100 -6 -6 1010.5 1007.2
16 15.09 ЮВ 6 н/о н/о +1.6 +1.6 100 -5 -5 1010.9 1007.6
17 15.09 ЮВ 6 н/о н/о +1.4 +1.4 100 -5 -5 1011.5 1008.2
18 15.09 ЮВ 6 н/о н/о +1.7 +1.7 100 -5 -5 1011.9 1008.6
19 15.09 ЮВ 6 н/о н/о +1.5 +1.5 100 -5 -5 1012.6 1009.3
20 15.09 ЮВ 5 н/о н/о +1.7 +1.7 100 -4 -4 1013.3 1010.0
21 15.09 ЮВ 5 н/о н/о +2.1 +1.9 99 -4 -4 1013.7 1010.4
22 15.09 ЮВ 5 н/о н/о +2.2 +2.0 99 -3 -3 1014.1 1010.8
23 15.09 ЮВ 3 н/о н/о +2.5 +2.5 100 -2 -2 1014.5 1011.2
00 16.09 ЮВ 3 н/о н/о +2.3 +2.3 100 -2 -2 1015.2 1011.9
01 16.09 ЮВ 3 н/о н/о +2.3 +2.3 100 -2 -2 1015.3 1012.0
02 16.09 ЮВ 3 н/о н/о +2.1 +2.1 100 -2 -2 1015.6 1012.3
03 16.09 ЮВ 3 н/о н/о +2.0 +2.0 100 -2 -2 1015.8 1012.5
04 16.09 ЮВ 3 н/о н/о +1.6 +1.6 100 -3 -3 1016.1 1012.8
05 16.09 ЮВ 3 н/о н/о +1.6 +1.6 100 -3 -3 1016.5 1013.2

 

Местоположение метеостанции Nuussuaataa (Гренландия): широта 70.68 долгота -54.61 высота над уровнем моря 27 м.

В архиве по умолчанию представлена погода в Nuussuaataa за последнюю неделю. Архивные данные за месяц целиком и за предыдущие месяцы, начиная с января 2011 года, Вы можете получить, выбрав интересующий диапазон дат из раскрывающегося списка и нажав кнопку "Ввод!".


*Определитесь, кто Вы:
робот инопланетянин человек

Внимание! Время в таблицах - всемирное. Для получения местного времени необходимо прибавить поправку, которая равна -3 ч.

Смотрите также архив погоды в соседних городах и на ближайших метеорологических станциях:

Погода Qaarsut Mittarfia (Гренландия) (70 км)
Погода в Ilulissat (Гренландия) (210 км)
Погода в Aasiaat Mittarfia (Гренландия) (229 км)
Погода в Aasiaat (Гренландия) (230 км)
Погода в Mittarfik Upernavik (Гренландия) (239 км)
Погода в Kitsissut (Гренландия) (324 км)
Погода в Kitsissorsuit (Гренландия) (388 км)
Погода в Sisimiut Mittarfia (Гренландия) (416 км)
Погода в Kangerlussuaq (Гренландия) (436 км)
Погода на Острове Бротон (Нунавут, Канада) (504 км)

Пояснения к столбцам:

Ветер - указаны скорость ветра в м/с - средняя за 10 мин, порывы в срок и между сроками (в фигурных скобках) и направление, откуда дует ветер: С - северный, СВ - северо-восточный, В - восточный, ЮВ - юго-восточный, Ю - южный, ЮЗ - юго-западный, З - западный, СЗ - северо-западный.
Видимость - горизонтальная дальность видимости в метрах или километрах. При видимости от 1 до 10 км при отсутствии осадков обычно наблюдается дымка, при ухудшении видимости до 1 км и менее - туман. В сухую погоду видимость может ухудшаться дымом, пылью или мглою.
Явления - указаны атмосферные явления, наблюдавшиеся в срок или в последний час перед сроком; фигурными скобками обозначены явления, наблюдавшиеся между сроками (за 1-3 часа до срока); квадратными скобками обозначены град или гололедные отложения с указанием их диаметра в мм.
Облачность - указаны через наклонную черту общая и нижняя облачность в баллах и высота нижней границы облаков в метрах; квадратными скобками обозначены формы облаков: Ci - перистые, Cs - перисто-слоистые, Cc - перисто-кучевые, Ac - высококучевые, As - высокослоистые, Sc - слоисто-кучевые, Ns - слоисто-дождевые, Cu - кучевые, Cb - кучево-дождевые. Подробнее классификацию облаков см. в Атласе облаков (PDF).
T - Температура воздуха - температура, измеренная на высоте 2 м над землей.
Td - Температура точки росы - температура, при понижении до которой содержащийся в воздухе водяной пар достигнет насыщения.
f - Относительная влажность воздуха - влажноcть воздуха, измеренная на высоте 2 м над землей.
Te - Эффективная температура - температура, которую ощущает одетый по сезону человек в тени. Характеристика душности погоды. При расчете учитывается влияние влажности воздуха и скорости ветра на теплоощущения человека.
Tes - Эффективная температура на солнце - температура, которую ощущает человек, с поправкой на солнечный нагрев. Характеристика знойности погоды. Зависит от высоты солнца над горизонтом, облачности и скорости ветра. Ночью, в пасмурную погоду, а также при ветре 12 м/с и более поправка равна нулю.
P - Атмосферное давление - приведенное к уровню моря атмосферное давление.
Po - Атмосферное давление - измеренное на уровне метеостанции атмосферное давление.
Tmin - Минимальная температура - минимум температуры воздуха на высоте 2 м над землей.
Tmax - Максимальная температура - максимум температуры воздуха на высоте 2 м над землей.
R - Количество осадков - Количество выпавших осадков за период времени, мм. При наведении курсора мыши на число - период времени, за который выпало указанное количество осадков.
R24 - Количество осадков - Количество выпавших осадков за 24 часа, мм.
S - Снежный покров - Высота снежного покрова, см. При наведении курсора мыши на число - состояние снежного покрова и степень покрытия местности в баллах.